Location: ??
(35.4032°N, 139.3073°E)
Time: 06:23:53
(UTC+00:00)

Cosmos 2026 Rocket - Visible Passes

Search period start: 16 July 2024 00:00
Search period end: 26 July 2024 00:00
Orbit: 938 x 1000 km, 82.9° (Epoch: 15 July)

Date Brightness Start Highest point End Pass type
(mag) Time Alt. Az. Time Alt. Az. Time Alt. Az.
16 Jul 6.7 16:36:33 10° NE 16:38:40 12° ENE 16:40:46 10° E visible
16 Jul 4.0 18:18:20 10° N 18:24:38 87° W 18:31:00 10° S visible
17 Jul 6.1 16:57:51 10° NNE 17:02:38 22° ENE 17:07:25 10° ESE visible
17 Jul 4.3 18:42:05 10° NNW 18:48:05 48° W 18:54:07 10° SSW visible
18 Jul 5.2 17:20:33 10° N 17:26:26 40° ENE 17:32:19 10° SSE visible
18 Jul 5.0 19:06:17 10° NNW 19:11:22 27° W 19:16:30 10° SW visible
19 Jul 4.2 17:43:46 10° N 17:50:04 72° E 17:56:24 10° SSE visible
20 Jul 6.4 16:23:56 10° NNE 16:27:52 17° ENE 16:31:49 10° ESE visible
20 Jul 4.0 18:07:21 10° NNW 18:13:34 64° W 18:19:44 10° S visible
21 Jul 5.6 16:46:15 10° NNE 16:51:45 31° ENE 16:57:15 10° SE visible
21 Jul 4.7 18:31:18 10° NNW 18:36:55 35° W 18:42:09 12° SSW visible
22 Jul 4.6 17:09:15 10° N 17:15:27 55° E 17:20:11 18° SSE visible
22 Jul 5.4 18:55:54 10° NW 19:00:08 19° W 19:04:24 10° SW visible
23 Jul 6.5 15:50:28 10° NE 15:53:04 13° ENE 15:55:39 10° E visible
23 Jul 3.9 17:32:40 10° N 17:39:01 83° W 17:42:47 26° S visible
24 Jul 5.9 16:12:04 10° NNE 16:17:02 24° ENE 16:20:58 14° ESE visible
24 Jul 4.3 17:56:27 10° NNW 18:02:26 46° W 18:05:27 27° SW visible
25 Jul 5.0 16:34:50 10° N 16:40:49 42° ENE 16:43:42 27° SE visible
25 Jul 5.1 18:20:42 10° NNW 18:25:43 25° W 18:28:11 20° WSW visible
